TimeEST,TemperatureF,Dew PointF,Humidity,Sea Level PressureIn,VisibilityMPH,Wind Direction,Wind SpeedMPH,Gust SpeedMPH,PrecipitationIn,Events,Conditions,WindDirDegrees,DateUTC
12:56 AM,45.0,42.1,90,29.88,10.0,ENE,5.8,-,0.00,,Overcast,60,2013-02-13 05:56:00
1:39 AM,44.6,42.8,93,29.86,10.0,ENE,5.8,-,N/A,,Overcast,60,2013-02-13 06:39:00
1:56 AM,45.0,42.1,90,29.85,10.0,NE,4.6,-,N/A,,Overcast,50,2013-02-13 06:56:00
2:56 AM,45.0,43.0,93,29.84,6.0,ENE,4.6,-,N/A,,Overcast,60,2013-02-13 07:56:00
3:21 AM,44.6,42.8,93,29.84,3.0,ENE,5.8,-,0.00,Rain,Light Rain,70,2013-02-13 08:21:00
3:56 AM,44.1,43.0,96,29.83,5.0,ENE,4.6,-,0.00,,Overcast,60,2013-02-13 08:56:00
4:07 AM,44.6,42.8,93,29.83,4.0,ENE,6.9,-,0.01,,Overcast,70,2013-02-13 09:07:00
4:56 AM,44.1,43.0,96,29.81,5.0,NE,8.1,-,0.02,Rain,Light Rain,40,2013-02-13 09:56:00
5:36 AM,44.6,42.8,93,29.79,7.0,ENE,8.1,-,0.01,,Overcast,60,2013-02-13 10:36:00
5:56 AM,44.1,43.0,96,29.79,5.0,NE,6.9,-,0.01,,Overcast,50,2013-02-13 10:56:00
6:56 AM,44.1,43.0,96,29.78,10.0,ENE,8.1,-,N/A,,Overcast,70,2013-02-13 11:56:00
7:51 AM,44.6,44.6,100,29.79,2.5,NE,5.8,-,N/A,,Overcast,50,2013-02-13 12:51:00
7:56 AM,44.1,44.1,100,29.79,2.5,Variable,3.5,-,N/A,,Overcast,0,2013-02-13 12:56:00
8:20 AM,44.6,44.6,100,29.78,1.8,East,4.6,-,0.00,Rain,Light Rain,100,2013-02-13 13:20:00
8:42 AM,44.6,44.6,100,29.77,2.0,NE,3.5,-,0.00,Rain,Light Rain,50,2013-02-13 13:42:00
8:56 AM,45.0,44.1,97,29.80,3.0,Calm,Calm,-,0.00,,Overcast,0,2013-02-13 13:56:00
9:07 AM,44.6,44.6,100,29.79,2.5,NE,3.5,-,0.01,,Overcast,40,2013-02-13 14:07:00
9:22 AM,44.6,44.6,100,29.77,3.0,ENE,3.5,-,0.01,,Overcast,60,2013-02-13 14:22:00
9:56 AM,45.0,44.1,97,29.75,3.0,ENE,4.6,-,0.01,,Overcast,70,2013-02-13 14:56:00
10:27 AM,44.6,44.6,100,29.74,2.5,ENE,5.8,-,0.00,Rain,Light Rain,60,2013-02-13 15:27:00
10:42 AM,44.6,44.6,100,29.77,3.0,Calm,Calm,-,0.00,,Overcast,0,2013-02-13 15:42:00
10:49 AM,44.6,44.6,100,29.75,2.5,East,4.6,-,0.00,,Overcast,100,2013-02-13 15:49:00
10:56 AM,45.0,44.1,97,29.78,2.5,Calm,Calm,-,0.00,,Overcast,0,2013-02-13 15:56:00
11:37 AM,46.4,44.6,93,29.80,1.8,WSW,6.9,-,0.00,Rain,Light Rain,250,2013-02-13 16:37:00
11:48 AM,46.4,44.6,93,29.78,2.0,WSW,4.6,-,0.01,,Overcast,250,2013-02-13 16:48:00
11:56 AM,45.0,45.0,100,29.75,3.0,NW,3.5,-,0.01,,Overcast,310,2013-02-13 16:56:00
12:56 PM,46.0,45.0,96,29.74,10.0,WSW,4.6,-,N/A,,Overcast,250,2013-02-13 17:56:00
1:06 PM,46.4,44.6,93,29.74,8.0,West,8.1,-,N/A,,Overcast,270,2013-02-13 18:06:00
1:56 PM,46.9,46.0,97,29.74,10.0,WSW,9.2,-,N/A,,Overcast,240,2013-02-13 18:56:00
2:10 PM,48.2,46.4,93,29.74,10.0,WSW,10.4,-,N/A,,Overcast,240,2013-02-13 19:10:00
2:35 PM,48.2,46.4,93,29.73,10.0,WSW,11.5,-,N/A,,Overcast,240,2013-02-13 19:35:00
2:42 PM,48.2,46.4,93,29.73,10.0,WSW,11.5,-,N/A,,Mostly Cloudy,240,2013-02-13 19:42:00
2:51 PM,50.0,46.4,87,29.72,10.0,WSW,11.5,-,N/A,,Scattered Clouds,240,2013-02-13 19:51:00
2:56 PM,50.0,46.9,89,29.72,10.0,WSW,13.8,-,N/A,,Scattered Clouds,240,2013-02-13 19:56:00
3:56 PM,52.0,46.0,80,29.72,10.0,WSW,9.2,-,N/A,,Clear,240,2013-02-13 20:56:00
4:56 PM,52.0,42.1,69,29.73,10.0,West,17.3,23.0,N/A,,Clear,260,2013-02-13 21:56:00
5:56 PM,48.9,41.0,74,29.77,10.0,WSW,17.3,29.9,N/A,,Partly Cloudy,250,2013-02-13 22:56:00
6:56 PM,48.0,39.9,74,29.80,10.0,WSW,15.0,23.0,N/A,,Clear,250,2013-02-13 23:56:00
7:56 PM,46.0,39.9,79,29.82,10.0,West,10.4,-,N/A,,Clear,260,2013-02-14 00:56:00
8:56 PM,45.0,39.9,82,29.84,10.0,West,9.2,-,N/A,,Clear,260,2013-02-14 01:56:00
9:56 PM,43.0,37.0,80,29.86,10.0,West,8.1,-,N/A,,Clear,280,2013-02-14 02:56:00
10:56 PM,41.0,35.1,79,29.88,10.0,WSW,3.5,-,N/A,,Clear,250,2013-02-14 03:56:00
11:56 PM,39.0,35.1,86,29.90,10.0,WSW,4.6,-,N/A,,Clear,250,2013-02-14 04:56:00